DW0427 Durrow IE current weather conditions

sailwx.info

Wind from 247 at 8 knots gusting 16

Air temperature 16.7° C
Dewpoint 10.5° C

Last reported at 2019-Aug-17 10:09 UTC.
Time now 2019-Aug-17 10:40 UTC

Location: N 52°51' W 007°23'.
View on Google Maps.

See reports from other nearby stations

  
Tides and Currents Weather Stations Pressure Air Temp Water Temp Dewpoint Dewpoint Depression Visibility Wind Speed Wind Dir Waves Ship Positions
date/time (UTC)wind fromknots sea level pressurealtimeterstation pressurevisibilityair tempwater tempwave heightnotes
2019-Aug-17 10:09 247 8 gusting 16 16.7
2019-Aug-17 10:03 248 8 gusting 16 16.7
2019-Aug-17 09:59 248 9 gusting 16 16.7
2019-Aug-17 09:53 249 9 gusting 19 16.1
2019-Aug-17 09:49 254 9 gusting 19 16.1
2019-Aug-17 09:43 253 9 gusting 17 16.1
2019-Aug-17 09:39 251 9 gusting 17 15.6
2019-Aug-17 09:33 251 9 gusting 19 15.6
2019-Aug-17 09:29 246 9 gusting 19 15.6
2019-Aug-17 09:23 247 7 gusting 16 15.6
2019-Aug-17 09:19 254 6 gusting 16 15.6
2019-Aug-17 09:13 257 7 gusting 18 15.6
2019-Aug-17 09:09 257 8 gusting 18 15.6
2019-Aug-17 09:03 260 9 gusting 17 15.0
2019-Aug-17 08:59 254 9 gusting 17 15.0
2019-Aug-17 08:53 255 7 gusting 19 15.0
2019-Aug-17 08:49 260 7 gusting 19 15.0
2019-Aug-17 08:43 254 7 gusting 16 15.0
2019-Aug-17 08:39 253 7 gusting 16 15.0
2019-Aug-17 08:33 254 6 gusting 15 15.0
2019-Aug-17 08:29 253 6 gusting 15 14.4
2019-Aug-17 08:23 251 7 gusting 15 14.4
2019-Aug-17 08:19 249 7 gusting 15 14.4
2019-Aug-17 08:13 247 7 gusting 17 14.4
2019-Aug-17 08:09 248 7 gusting 17 14.4
2019-Aug-17 08:03 247 7 gusting 14 14.4
2019-Aug-17 07:59 244 7 gusting 14 14.4
2019-Aug-17 07:53 244 7 gusting 15 13.9
2019-Aug-17 07:49 243 7 gusting 15 13.9
2019-Aug-17 07:43 237 7 gusting 13 13.9
2019-Aug-17 07:39 239 6 gusting 13 13.3
2019-Aug-17 07:33 240 6 gusting 13 13.3
2019-Aug-17 07:29 238 6 gusting 13 13.3
2019-Aug-17 07:23 237 7 gusting 14 12.8
2019-Aug-17 07:19 242 6 gusting 14 12.8
2019-Aug-17 07:13 242 6 gusting 14 12.8
2019-Aug-17 07:09 239 6 gusting 11 12.8
2019-Aug-17 07:03 243 6 gusting 13 12.8
2019-Aug-17 06:59 242 6 gusting 13 12.8
2019-Aug-17 06:53 235 6 gusting 11 12.8
2019-Aug-17 06:49 238 6 gusting 11 12.8
2019-Aug-17 06:43 240 5 gusting 12 12.8
2019-Aug-17 06:39 240 5 gusting 12 12.8
2019-Aug-17 06:33 240 6 gusting 11 12.2
2019-Aug-17 06:29 240 6 gusting 11 12.2
2019-Aug-17 06:23 239 6 gusting 12 12.2
2019-Aug-17 06:19 242 6 gusting 12 12.2
2019-Aug-17 06:13 246 6 gusting 12 12.2
2019-Aug-17 06:09 243 6 gusting 11 12.2
2019-Aug-17 06:03 238 5 gusting 11 12.2
2019-Aug-17 05:59 237 5 gusting 12 12.2
2019-Aug-17 05:53 236 5 gusting 12 11.7
2019-Aug-17 05:49 233 4 gusting 8 11.7
2019-Aug-17 05:43 229 4 gusting 8 11.7
2019-Aug-17 05:39 233 4 gusting 8 11.7
2019-Aug-17 05:33 241 4 gusting 10 11.7
2019-Aug-17 05:29 245 4 gusting 10 11.7
2019-Aug-17 05:23 244 5 gusting 10 11.7
2019-Aug-17 05:19 243 5 gusting 10 11.7
2019-Aug-17 05:13 246 5 gusting 9 11.7
2019-Aug-17 05:09 248 5 gusting 8 11.7
2019-Aug-17 05:03 245 5 gusting 10 11.7
2019-Aug-17 04:59 241 5 gusting 10 11.7
2019-Aug-17 04:53 240 5 gusting 9 11.7
2019-Aug-17 04:49 241 5 gusting 9 11.7
2019-Aug-17 04:43 243 4 gusting 9 11.7
2019-Aug-17 04:39 243 4 gusting 10 11.7
2019-Aug-17 04:33 241 4 gusting 10 11.7
2019-Aug-17 04:29 243 4 gusting 11 11.7
2019-Aug-17 04:23 249 4 gusting 11 11.7
2019-Aug-17 04:19 247 4 gusting 8 11.7
2019-Aug-17 04:13 248 4 gusting 8 12.2
2019-Aug-17 04:09 256 4 gusting 10 12.2
2019-Aug-17 04:03 263 4 gusting 10 12.2
2019-Aug-17 03:59 261 4 gusting 9 12.2
2019-Aug-17 03:53 257 4 gusting 9 12.2
2019-Aug-17 03:49 256 5 gusting 9 12.2
2019-Aug-17 03:43 251 5 gusting 9 12.2
2019-Aug-17 03:39 250 5 gusting 10 12.2
2019-Aug-17 03:33 252 5 gusting 10 12.2
2019-Aug-17 03:29 252 5 gusting 10 12.2
2019-Aug-17 03:23 249 4 gusting 8 12.2
2019-Aug-17 03:19 249 4 gusting 7 12.2
2019-Aug-17 03:13 255 4 gusting 8 12.2
2019-Aug-17 03:09 258 3 gusting 8 12.2
2019-Aug-17 03:03 257 3 gusting 7 12.8
2019-Aug-17 02:59 254 3 gusting 6 12.8
2019-Aug-17 02:53 260 3 gusting 13 12.8
2019-Aug-17 02:49 260 3 gusting 13 12.8
2019-Aug-17 02:43 263 4 gusting 6 12.8
2019-Aug-17 02:39 266 4 gusting 7 12.8
2019-Aug-17 02:33 261 3 gusting 8 12.8
2019-Aug-17 02:29 259 3 gusting 8 12.8
2019-Aug-17 02:23 255 3 gusting 7 12.8
2019-Aug-17 02:19 256 3 gusting 7 12.8
2019-Aug-17 02:13 256 3 gusting 8 12.8
2019-Aug-17 02:09 255 3 gusting 8 12.8
2019-Aug-17 02:03 265 2 gusting 6 12.8
2019-Aug-17 01:59 267 2 gusting 6 12.8
2019-Aug-17 01:53 257 2 gusting 6 13.3
2019-Aug-17 01:49 246 2 gusting 5 13.3
2019-Aug-17 01:43 221 2 gusting 5 13.3
2019-Aug-17 01:39 217 1 gusting 3 13.3
2019-Aug-17 01:33 241 2 gusting 4 13.3
2019-Aug-17 01:29 253 2 gusting 4 13.3
2019-Aug-17 01:23 266 4 gusting 8 13.3
2019-Aug-17 01:19 272 4 gusting 8 13.3
2019-Aug-17 01:13 288 5 gusting 7 13.3
2019-Aug-17 01:09 292 6 gusting 7 13.9
2019-Aug-17 01:03 287 6 gusting 11 13.9
2019-Aug-17 00:59 287 6 gusting 12 13.9
2019-Aug-17 00:53 285 6 gusting 12 13.9
2019-Aug-17 00:49 283 5 gusting 12 13.9
2019-Aug-17 00:43 279 5 gusting 9 14.4
2019-Aug-17 00:39 264 5 gusting 9 14.4
2019-Aug-17 00:33 252 6 gusting 11 14.4
2019-Aug-17 00:29 249 7 gusting 11 14.4
2019-Aug-17 00:23 250 7 gusting 16 14.4
2019-Aug-17 00:19 250 7 gusting 16 14.4
2019-Aug-17 00:13 248 6 gusting 14 14.4
2019-Aug-17 00:09 248 7 gusting 14 14.4
2019-Aug-17 00:03 247 8 gusting 15 14.4
2019-Aug-16 23:59 246 8 gusting 15 14.4
2019-Aug-16 23:53 238 8 gusting 15 14.4
2019-Aug-16 23:49 234 8 gusting 15 14.4
2019-Aug-16 23:43 232 8 gusting 14 14.4
2019-Aug-16 23:39 230 7 gusting 14 14.4
2019-Aug-16 23:33 231 7 gusting 15 15.0
2019-Aug-16 23:29 229 7 gusting 15 15.0
2019-Aug-16 23:23 227 7 gusting 13 14.4
2019-Aug-16 23:19 229 7 gusting 13 14.4
2019-Aug-16 23:13 229 7 gusting 13 14.4
2019-Aug-16 23:09 228 7 gusting 14 15.0
2019-Aug-16 23:03 229 7 gusting 14 15.0
2019-Aug-16 22:59 232 7 gusting 14 15.0
2019-Aug-16 22:53 231 7 gusting 14 15.0
2019-Aug-16 22:49 226 6 gusting 14 15.0
2019-Aug-16 22:43 218 6 gusting 11 14.4
2019-Aug-16 22:39 209 6 gusting 10 14.4
2019-Aug-16 22:33 210 6 gusting 13 14.4
2019-Aug-16 22:29 215 6 gusting 13 15.0
2019-Aug-16 22:23 215 6 gusting 13 15.0
2019-Aug-16 22:19 216 6 gusting 12 15.0
2019-Aug-16 22:13 217 6 gusting 12 15.0
2019-Aug-16 22:09 218 6 gusting 12 15.0
2019-Aug-16 22:03 217 6 gusting 9 14.4
2019-Aug-16 21:59 215 6 gusting 9 14.4
2019-Aug-16 21:53 220 6 gusting 9 14.4
2019-Aug-16 21:49 227 6 gusting 9 14.4
2019-Aug-16 21:43 233 6 gusting 11 14.4
2019-Aug-16 21:39 237 6 gusting 11 14.4
2019-Aug-16 21:33 237 6 gusting 11 14.4
2019-Aug-16 21:29 237 5 gusting 11 14.4
2019-Aug-16 21:23 239 5 gusting 11 14.4
2019-Aug-16 21:19 241 5 gusting 12 14.4
2019-Aug-16 21:13 244 6 gusting 16 14.4
2019-Aug-16 21:09 247 6 gusting 16 14.4
2019-Aug-16 21:03 245 6 gusting 13 15.0
2019-Aug-16 20:59 241 6 gusting 12 15.0
2019-Aug-16 20:53 242 6 gusting 12 15.0
2019-Aug-16 20:49 244 5 gusting 13 15.0
2019-Aug-16 20:43 247 6 gusting 13 15.0
2019-Aug-16 20:39 245 6 gusting 13 15.0
2019-Aug-16 20:33 240 6 gusting 13 15.0
2019-Aug-16 20:29 240 6 gusting 13 15.0
2019-Aug-16 20:23 242 6 gusting 13 15.0
2019-Aug-16 20:19 243 6 gusting 11 15.0
2019-Aug-16 20:13 243 6 gusting 12 15.6
2019-Aug-16 20:09 245 6 gusting 12 15.6
2019-Aug-16 20:03 251 6 gusting 13 15.6
2019-Aug-16 19:59 253 6 gusting 13 15.6
2019-Aug-16 19:53 255 6 gusting 13 15.6
2019-Aug-16 19:49 251 6 gusting 13 15.6
2019-Aug-16 19:43 241 6 gusting 12 16.1
2019-Aug-16 19:39 242 6 gusting 19 16.1
2019-Aug-16 19:33 247 6 gusting 19 16.1
2019-Aug-16 19:29 250 6 gusting 13 16.1
2019-Aug-16 19:23 255 7 gusting 15 16.7
2019-Aug-16 19:19 253 8 gusting 15 16.7
2019-Aug-16 19:13 248 8 gusting 17 16.7
2019-Aug-16 19:09 250 7 gusting 17 16.7
2019-Aug-16 19:03 251 7 gusting 17 16.7
2019-Aug-16 18:59 250 7 gusting 17 17.2
2019-Aug-16 18:53 252 7 gusting 15 17.2
2019-Aug-16 18:49 257 7 gusting 18 17.2
2019-Aug-16 18:43 259 7 gusting 18 17.8
2019-Aug-16 18:39 254 7 gusting 15 17.2
2019-Aug-16 18:33 250 7 gusting 14 17.2
2019-Aug-16 18:29 251 6 gusting 14 17.8
2019-Aug-16 18:23 257 6 gusting 13 17.8
2019-Aug-16 18:19 262 6 gusting 13 18.3
2019-Aug-16 18:13 268 6 gusting 13 18.3
2019-Aug-16 18:09 267 6 gusting 13 18.3
2019-Aug-16 18:03 264 6 gusting 13 18.3
2019-Aug-16 17:59 262 6 gusting 15 18.3
2019-Aug-16 17:53 264 6 gusting 15 18.9
2019-Aug-16 17:49 271 6 gusting 14 18.9
2019-Aug-16 17:43 276 7 gusting 14 19.4
2019-Aug-16 17:39 276 7 gusting 16 19.4
2019-Aug-16 17:33 276 7 gusting 16 18.9
2019-Aug-16 17:29 275 8 gusting 15 18.9
2019-Aug-16 17:23 263 9 gusting 19 18.9
2019-Aug-16 17:19 261 7 gusting 19 18.9
2019-Aug-16 17:13 258 6 gusting 15 19.4
2019-Aug-16 17:09 254 6 gusting 13 19.4
2019-Aug-16 17:03 269 7 gusting 13 19.4
2019-Aug-16 16:59 273 7 gusting 13 19.4
2019-Aug-16 16:53 273 6 gusting 17 19.4
2019-Aug-16 16:49 275 6 gusting 17 20.0
2019-Aug-16 16:43 275 6 gusting 14 20.0
2019-Aug-16 16:39 264 6 gusting 13 19.4
2019-Aug-16 16:33 256 8 gusting 15 19.4
2019-Aug-16 16:29 258 8 gusting 15 20.0
2019-Aug-16 16:23 270 7 gusting 14 20.6
2019-Aug-16 16:19 272 6 gusting 13 20.6
2019-Aug-16 16:13 272 6 gusting 13 20.6
2019-Aug-16 16:09 280 6 gusting 13 20.6
2019-Aug-16 16:03 279 6 gusting 12 20.6
2019-Aug-16 15:59 279 7 gusting 14 20.6
2019-Aug-16 15:53 281 8 gusting 14 20.0
2019-Aug-16 15:49 280 8 gusting 18 20.0
2019-Aug-16 15:43 274 7 gusting 18 20.0
2019-Aug-16 15:39 273 6 gusting 17 20.0
2019-Aug-16 15:33 275 6 gusting 17 20.0
2019-Aug-16 15:29 278 7 gusting 15 19.4
2019-Aug-16 15:23 292 8 gusting 16 19.4
2019-Aug-16 15:19 287 8 gusting 16 19.4
2019-Aug-16 15:13 271 8 gusting 17 20.0
2019-Aug-16 15:09 270 7 gusting 17 20.0
2019-Aug-16 15:03 275 6 gusting 15 20.0
2019-Aug-16 14:59 273 6 gusting 15 20.0
2019-Aug-16 14:53 277 6 gusting 12 20.0
2019-Aug-16 14:49 281 7 gusting 10 20.6
2019-Aug-16 14:43 265 7 gusting 15 20.6
2019-Aug-16 14:39 252 6 gusting 16 20.6
2019-Aug-16 14:33 262 6 gusting 16 20.6
2019-Aug-16 14:29 279 6 gusting 15 20.6
2019-Aug-16 14:23 280 6 gusting 11 20.0
2019-Aug-16 14:19 279 6 gusting 12 20.0
2019-Aug-16 14:13 279 7 gusting 13 19.4
2019-Aug-16 14:09 280 6 gusting 13 19.4
2019-Aug-16 14:03 278 6 gusting 12 18.9
2019-Aug-16 13:59 261 6 gusting 12 19.4
2019-Aug-16 13:53 240 6 gusting 13 19.4
2019-Aug-16 13:49 242 5 gusting 13 19.4
2019-Aug-16 13:43 242 5 gusting 11 18.9
2019-Aug-16 13:39 243 6 gusting 10 18.3
2019-Aug-16 13:33 268 6 gusting 12 17.8
2019-Aug-16 13:29 276 7 gusting 12 17.8
2019-Aug-16 13:23 269 8 gusting 17 18.9
2019-Aug-16 13:19 238 9 gusting 17 20.0
2019-Aug-16 13:13 202 8 gusting 16 20.6
2019-Aug-16 13:09 197 7 gusting 16 20.6
2019-Aug-16 13:03 198 6 gusting 14 20.6
2019-Aug-16 12:59 208 6 gusting 12 20.6
2019-Aug-16 12:53 213 7 gusting 14 20.6
2019-Aug-16 12:49 208 7 gusting 14 20.6
2019-Aug-16 12:43 203 8 gusting 17 20.6
2019-Aug-16 12:39 203 8 gusting 17 20.6
2019-Aug-16 12:33 202 8 gusting 15 20.6
2019-Aug-16 12:29 200 7 gusting 15 20.6
2019-Aug-16 12:23 201 6 gusting 13 20.6
2019-Aug-16 12:19 207 6 gusting 13 20.6
2019-Aug-16 12:13 212 7 gusting 11 20.0
2019-Aug-16 12:09 215 7 gusting 13 19.4
2019-Aug-16 12:03 222 6 gusting 13 19.4
2019-Aug-16 11:59 225 6 gusting 12 20.0
2019-Aug-16 11:53 215 5 gusting 10 20.6
2019-Aug-16 11:49 204 5 gusting 9 20.6
2019-Aug-16 11:43 207 5 gusting 9 19.4
2019-Aug-16 11:39 210 5 gusting 9 19.4
2019-Aug-16 11:33 205 5 gusting 11 19.4
2019-Aug-16 11:29 206 5 gusting 11 19.4
2019-Aug-16 11:23 218 6 gusting 10 18.3
2019-Aug-16 11:19 233 6 gusting 11 18.3
2019-Aug-16 11:13 231 5 gusting 11 18.3
2019-Aug-16 11:09 220 5 gusting 11 18.3
2019-Aug-16 11:03 215 5 gusting 7 18.3
2019-Aug-16 10:59 215 5 gusting 8 18.3
2019-Aug-16 10:53 220 5 gusting 8 18.3
2019-Aug-16 10:49 223 5 gusting 9 18.3
2019-Aug-16 10:43 223 6 gusting 10 18.3
2019-Aug-16 10:39 225 5 gusting 10 18.3
2019-Aug-16 10:33 231 4 gusting 10 18.3
2019-Aug-16 10:29 241 4 gusting 10 18.3
2019-Aug-16 10:23 246 6 gusting 13 18.3
2019-Aug-16 10:19 237 7 gusting 13 18.3
2019-Aug-16 10:13 228 8 gusting 13 18.3
2019-Aug-16 10:09 227 8 gusting 13 18.3
2019-Aug-16 10:03 226 7 gusting 18 18.3
2019-Aug-16 09:59 227 7 gusting 18 18.3
2019-Aug-16 09:53 223 6 gusting 13 18.3
2019-Aug-16 09:49 218 6 gusting 13 18.3
2019-Aug-16 09:43 221 6 gusting 11 18.3
2019-Aug-16 09:39 222 6 gusting 11 18.3
2019-Aug-16 09:33 217 6 gusting 12 18.3
2019-Aug-16 09:29 216 6 gusting 12 18.3
2019-Aug-16 09:23 206 6 gusting 13 18.3
2019-Aug-16 09:19 203 6 gusting 13 17.8
2019-Aug-16 09:13 205 6 gusting 13 17.8
2019-Aug-16 09:09 199 7 gusting 13 17.8
2019-Aug-16 09:03 191 8 gusting 12 17.2
2019-Aug-16 09:00 192 9 gusting 14 17.2
2019-Aug-16 08:53 189 10 gusting 14 16.7
2019-Aug-16 08:49 188 10 gusting 15 16.7
2019-Aug-16 08:43 189 10 gusting 15 16.7
2019-Aug-16 08:39 189 10 gusting 17 16.7
2019-Aug-16 08:33 186 11 gusting 17 16.7
2019-Aug-16 08:30 186 11 gusting 17 16.7
2019-Aug-16 08:24 186 11 gusting 17 16.1
2019-Aug-16 08:20 184 10 gusting 17 16.1
2019-Aug-16 08:13 185 10 gusting 16 16.1
2019-Aug-16 08:09 187 10 gusting 16 15.6
2019-Aug-16 08:03 188 10 gusting 16 15.6
2019-Aug-16 07:59 184 9 gusting 16 15.6
2019-Aug-16 07:54 181 8 gusting 14 15.6
2019-Aug-16 07:49 178 8 gusting 13 15.6
2019-Aug-16 07:43 177 8 gusting 13 15.0
2019-Aug-16 07:40 178 9 gusting 15 15.0
2019-Aug-16 07:34 179 9 gusting 15 15.0
2019-Aug-16 07:30 178 9 gusting 14 15.0
2019-Aug-16 07:24 179 9 gusting 14 15.0
2019-Aug-16 07:20 177 9 gusting 16 15.0
2019-Aug-16 07:14 174 10 gusting 16 15.0
2019-Aug-16 07:09 175 10 gusting 15 15.0
2019-Aug-16 07:04 179 11 gusting 17 15.0
2019-Aug-16 07:00 184 11 gusting 19 15.0
2019-Aug-16 06:53 185 12 gusting 22 14.4
2019-Aug-16 06:50 184 11 gusting 22 14.4
2019-Aug-16 06:44 185 10 gusting 16 14.4
2019-Aug-16 06:40 184 10 gusting 16 14.4
2019-Aug-16 06:34 181 10 gusting 16 14.4
2019-Aug-16 06:30 179 10 gusting 16 14.4
2019-Aug-16 06:24 185 11 gusting 18 14.4
2019-Aug-16 06:20 188 11 gusting 18 14.4
2019-Aug-16 06:14 187 10 gusting 16 14.4
2019-Aug-16 06:10 187 11 gusting 18 14.4
2019-Aug-16 06:04 184 11 gusting 19 14.4
2019-Aug-16 06:00 184 11 gusting 20 14.4
2019-Aug-16 05:54 184 11 gusting 20 14.4
2019-Aug-16 05:50 178 11 gusting 17 14.4
2019-Aug-16 05:44 179 10 gusting 17 14.4
2019-Aug-16 05:40 185 11 gusting 19 14.4
2019-Aug-16 05:34 186 12 gusting 19 14.4
2019-Aug-16 05:30 188 11 gusting 19 14.4
2019-Aug-16 05:24 194 11 gusting 19 14.4
2019-Aug-16 05:20 195 11 gusting 19 14.4
2019-Aug-16 05:14 196 9 gusting 19 14.4
2019-Aug-16 05:10 196 8 gusting 19 14.4
2019-Aug-16 05:04 194 9 gusting 14 14.4
2019-Aug-16 05:00 195 10 gusting 15 14.4
2019-Aug-16 04:54 193 9 gusting 17 14.4
2019-Aug-16 04:50 190 9 gusting 18 14.4
2019-Aug-16 04:44 195 8 gusting 18 14.4
2019-Aug-16 04:40 198 8 gusting 15 14.4
2019-Aug-16 04:34 199 8 gusting 13 13.9
2019-Aug-16 04:28 202 8 gusting 16 13.9
2019-Aug-16 04:24 203 8 gusting 16 13.9
2019-Aug-16 04:20 199 9 gusting 14 13.9
2019-Aug-16 04:14 192 9 gusting 17 13.9
2019-Aug-16 04:10 189 9 gusting 17 13.9
2019-Aug-16 04:04 189 7 gusting 15 13.9
2019-Aug-16 04:00 191 8 gusting 15 13.9
2019-Aug-16 03:54 196 8 gusting 15 13.9
2019-Aug-16 03:50 197 8 gusting 15 13.9
2019-Aug-16 03:44 194 8 gusting 14 13.9
2019-Aug-16 03:40 191 8 gusting 16 13.9
2019-Aug-16 03:34 195 9 gusting 16 13.9
2019-Aug-16 03:30 198 9 gusting 16 13.9
2019-Aug-16 03:24 197 10 gusting 19 13.9
2019-Aug-16 03:20 197 10 gusting 19 13.9
2019-Aug-16 03:14 197 10 gusting 18 14.4
2019-Aug-16 03:10 196 10 gusting 18 14.4
2019-Aug-16 03:04 192 9 gusting 19 14.4
2019-Aug-16 03:00 190 8 gusting 19 14.4
2019-Aug-16 02:54 185 8 gusting 15 14.4
2019-Aug-16 02:50 182 8 gusting 15 14.4
2019-Aug-16 02:44 179 8 gusting 14 14.4
2019-Aug-16 02:40 183 9 gusting 15 14.4
2019-Aug-16 02:34 191 9 gusting 15 14.4
2019-Aug-16 02:30 194 8 gusting 17 14.4
2019-Aug-16 02:24 196 8 gusting 18 14.4
2019-Aug-16 02:20 195 8 gusting 18 14.4
2019-Aug-16 02:14 196 8 gusting 14 14.4
2019-Aug-16 02:10 196 8 gusting 14 14.4
2019-Aug-16 02:04 194 8 gusting 17 14.4
2019-Aug-16 02:00 193 7 gusting 17 14.4
2019-Aug-16 01:54 194 6 gusting 17 14.4
2019-Aug-16 01:50 196 5 gusting 10 14.4
2019-Aug-16 01:44 202 5 gusting 7 14.4
2019-Aug-16 01:40 204 6 gusting 8 14.4
2019-Aug-16 01:34 200 6 gusting 11 14.4
2019-Aug-16 01:30 195 6 gusting 11 14.4
2019-Aug-16 01:24 190 6 gusting 9 14.4
2019-Aug-16 01:20 181 6 gusting 11 14.4
2019-Aug-16 01:14 168 6 gusting 11 14.4
2019-Aug-16 01:10 170 6 gusting 10 14.4
2019-Aug-16 01:04 178 6 gusting 12 14.4
2019-Aug-16 01:00 181 5 gusting 12 14.4
2019-Aug-16 00:54 174 6 gusting 9 14.4
2019-Aug-16 00:50 173 6 gusting 7 14.4
2019-Aug-16 00:44 176 6 gusting 11 14.4
2019-Aug-16 00:40 172 6 gusting 11 14.4
2019-Aug-16 00:34 171 6 gusting 10 14.4
2019-Aug-16 00:30 173 6 gusting 9 14.4
2019-Aug-16 00:24 171 6 gusting 9 14.4
2019-Aug-16 00:20 170 6 gusting 9 14.4
2019-Aug-16 00:14 176 6 gusting 11 14.4
2019-Aug-16 00:10 182 6 gusting 11 14.4
2019-Aug-16 00:04 183 7 gusting 13 15.0
2019-Aug-16 00:00 185 7 gusting 13 15.0
2019-Aug-15 23:54 188 6 gusting 13 15.0
2019-Aug-15 23:50 186 6 gusting 13 15.0
2019-Aug-15 23:44 184 6 gusting 11 15.0
2019-Aug-15 23:40 181 6 gusting 13 15.0
2019-Aug-15 23:34 181 5 gusting 13 15.0
2019-Aug-15 23:30 188 5 gusting 9 15.0
2019-Aug-15 23:24 195 6 gusting 9 15.0
2019-Aug-15 23:20 195 6 gusting 9 15.0
2019-Aug-15 23:14 191 7 gusting 12 14.4
2019-Aug-15 23:10 189 7 gusting 12 14.4
2019-Aug-15 23:04 185 8 gusting 13 14.4
2019-Aug-15 23:00 184 8 gusting 13 14.4
2019-Aug-15 22:54 181 7 gusting 13 14.4
2019-Aug-15 22:50 182 7 gusting 13 14.4
2019-Aug-15 22:44 183 7 gusting 12 14.4
2019-Aug-15 22:40 181 7 gusting 11 14.4
2019-Aug-15 22:34 184 8 gusting 12 14.4
2019-Aug-15 22:30 187 7 gusting 12 14.4
2019-Aug-15 22:24 189 6 gusting 12 15.0
2019-Aug-15 22:20 191 6 gusting 12 15.0
2019-Aug-15 22:14 200 6 gusting 12 15.0
2019-Aug-15 22:10 205 6 gusting 10 15.0
2019-Aug-15 22:02 201 6 gusting 10 15.0
2019-Aug-15 21:59 201 6 gusting 10 15.0
2019-Aug-15 21:54 200 6 gusting 10 15.0
2019-Aug-15 21:50 197 6 gusting 10 15.0
2019-Aug-15 21:44 193 6 gusting 11 15.0
2019-Aug-15 21:40 194 6 gusting 11 15.0
2019-Aug-15 21:34 201 6 gusting 12 15.6
2019-Aug-15 21:30 205 6 gusting 12 15.6
2019-Aug-15 21:24 201 6 gusting 12 15.6
2019-Aug-15 21:20 198 6 gusting 12 15.6
2019-Aug-15 21:14 205 6 gusting 14 15.6
2019-Aug-15 21:10 212 6 gusting 14 16.1
2019-Aug-15 21:04 220 6 gusting 13 16.1
2019-Aug-15 21:00 220 6 gusting 13 16.1
2019-Aug-15 20:54 215 6 gusting 11 16.1
2019-Aug-15 20:50 216 6 gusting 11 16.1
2019-Aug-15 20:44 222 6 gusting 11 16.7
2019-Aug-15 20:40 222 6 gusting 14 16.7
2019-Aug-15 20:34 219 4 gusting 14 16.7
2019-Aug-15 20:30 224 3 gusting 9 16.7
2019-Aug-15 20:24 234 4 gusting 6 16.7
2019-Aug-15 20:20 236 4 gusting 7 16.7
2019-Aug-15 20:14 230 4 gusting 7 16.7
2019-Aug-15 20:10 222 4 gusting 8 16.7
2019-Aug-15 20:04 213 3 gusting 8 16.7
2019-Aug-15 20:00 208 2 gusting 6 16.7
2019-Aug-15 19:54 212 2 gusting 4 16.7
2019-Aug-15 19:50 221 2 gusting 4 17.2
2019-Aug-15 19:44 228 2 gusting 4 17.2
2019-Aug-15 19:40 233 2 gusting 3 17.2
2019-Aug-15 19:34 240 3 gusting 4 17.8
2019-Aug-15 19:30 243 3 gusting 5 17.8
2019-Aug-15 19:24 250 3 gusting 6 17.8
2019-Aug-15 19:20 253 3 gusting 6 17.8
2019-Aug-15 19:14 253 3 gusting 8 17.8
2019-Aug-15 19:10 251 3 gusting 8 17.8
2019-Aug-15 19:04 246 4 gusting 6 17.8
2019-Aug-15 19:00 247 4 gusting 8 18.3
2019-Aug-15 18:54 254 4 gusting 9 18.3
2019-Aug-15 18:50 257 4 gusting 9 18.3
2019-Aug-15 18:44 260 3 gusting 10 18.9
2019-Aug-15 18:40 263 3 gusting 10 18.9
2019-Aug-15 18:34 260 4 gusting 7 18.9
2019-Aug-15 18:30 257 4 gusting 8 18.9
2019-Aug-15 18:24 256 5 gusting 9 18.9
2019-Aug-15 18:20 256 5 gusting 9 18.9
2019-Aug-15 18:14 258 4 gusting 10 18.9
2019-Aug-15 18:10 261 4 gusting 10 19.4
2019-Aug-15 18:04 269 4 gusting 8 19.4
2019-Aug-15 18:00 266 4 gusting 8 19.4
2019-Aug-15 17:54 264 5 gusting 8 20.0
2019-Aug-15 17:50 271 6 gusting 9 20.0
2019-Aug-15 17:44 258 4 gusting 11 19.4
2019-Aug-15 17:40 243 4 gusting 11 19.4
2019-Aug-15 17:34 249 4 gusting 6 19.4
2019-Aug-15 17:30 251 5 gusting 7 19.4
2019-Aug-15 17:24 267 5 gusting 9 20.0
2019-Aug-15 17:20 277 6 gusting 9 20.0
2019-Aug-15 17:14 282 6 gusting 10 20.0
2019-Aug-15 17:10 283 6 gusting 10 20.0
2019-Aug-15 17:04 278 6 gusting 13 20.0
2019-Aug-15 17:00 276 6 gusting 13 20.6
2019-Aug-15 16:54 269 6 gusting 13 20.6
2019-Aug-15 16:50 270 7 gusting 13 20.6
2019-Aug-15 16:44 277 6 gusting 14 20.6
2019-Aug-15 16:40 278 6 gusting 14 20.6
2019-Aug-15 16:34 286 6 gusting 9 20.6
2019-Aug-15 16:30 291 6 gusting 9 20.6
2019-Aug-15 16:24 285 6 gusting 11 20.6
2019-Aug-15 16:20 288 6 gusting 12 20.6
2019-Aug-15 16:14 298 6 gusting 12 20.6
2019-Aug-15 16:10 294 6 gusting 10 20.6
2019-Aug-15 16:04 299 6 gusting 11 20.6
2019-Aug-15 16:00 299 6 gusting 11 20.6
2019-Aug-15 15:54 286 7 gusting 12 20.6
2019-Aug-15 15:50 287 7 gusting 13 20.6
2019-Aug-15 15:44 293 6 gusting 13 20.6
2019-Aug-15 15:40 288 6 gusting 13 20.6
2019-Aug-15 15:34 283 6 gusting 15 19.4
2019-Aug-15 15:30 290 7 gusting 15 19.4
2019-Aug-15 15:24 295 9 gusting 14 20.0
2019-Aug-15 15:20 292 9 gusting 14 19.4
2019-Aug-15 15:14 285 9 gusting 14 20.0
2019-Aug-15 15:10 285 9 gusting 14 20.0
2019-Aug-15 15:04 286 10 gusting 16 19.4
2019-Aug-15 15:00 286 10 gusting 16 20.0
2019-Aug-15 14:54 284 9 gusting 19 20.0
2019-Aug-15 14:50 280 8 gusting 19 20.0
2019-Aug-15 14:44 283 7 gusting 18 20.0
2019-Aug-15 14:40 285 7 gusting 18 20.0
2019-Aug-15 14:34 291 8 gusting 14 19.4
2019-Aug-15 14:30 298 9 gusting 16 18.9
2019-Aug-15 14:24 296 10 gusting 17 18.3
2019-Aug-15 14:20 286 10 gusting 17 18.3
2019-Aug-15 14:14 280 10 gusting 18 19.4
2019-Aug-15 14:10 278 8 gusting 18 20.0
2019-Aug-15 14:04 272 7 gusting 16 20.0
2019-Aug-15 14:00 280 7 gusting 15 20.0
2019-Aug-15 13:54 282 7 gusting 14 19.4
2019-Aug-15 13:50 275 6 gusting 14 19.4
2019-Aug-15 13:44 271 6 gusting 12 18.9
2019-Aug-15 13:40 277 6 gusting 12 18.3
2019-Aug-15 13:34 289 7 gusting 13 18.3
2019-Aug-15 13:30 294 8 gusting 13 17.8
2019-Aug-15 13:24 297 8 gusting 14 18.3
2019-Aug-15 13:20 298 8 gusting 14 18.3
2019-Aug-15 13:14 297 9 gusting 17 18.3
2019-Aug-15 13:10 293 9 gusting 17 18.9
2019-Aug-15 13:04 293 8 gusting 16 18.9
2019-Aug-15 13:00 288 6 gusting 13 18.9
2019-Aug-15 12:54 278 6 gusting 13 18.9
2019-Aug-15 12:50 279 5 gusting 9 18.9
2019-Aug-15 12:44 282 4 gusting 11 18.9
2019-Aug-15 12:40 284 3 gusting 11 18.9
2019-Aug-15 12:34 284 3 gusting 6 18.9
2019-Aug-15 12:30 281 3 gusting 6 18.9
2019-Aug-15 12:24 263 5 gusting 7 18.9
2019-Aug-15 12:20 273 5 gusting 8 18.9
2019-Aug-15 12:14 278 4 gusting 8 18.9
2019-Aug-15 12:10 266 5 gusting 9 18.3
2019-Aug-15 12:04 276 6 gusting 9 18.3
2019-Aug-15 12:00 292 7 gusting 12 18.3
2019-Aug-15 11:54 304 6 gusting 12 18.3
2019-Aug-15 11:50 302 6 gusting 12 18.3
2019-Aug-15 11:44 290 6 gusting 11 18.3
2019-Aug-15 11:40 286 6 gusting 11 17.8
2019-Aug-15 11:34 285 5 gusting 11 17.8
2019-Aug-15 11:30 290 5 gusting 8 17.8
2019-Aug-15 11:24 288 6 gusting 9 17.8
2019-Aug-15 11:20 291 6 gusting 9 17.8
2019-Aug-15 11:14 295 5 gusting 11 17.8
2019-Aug-15 11:10 293 4 gusting 11 17.8
2019-Aug-15 11:04 292 5 gusting 7 17.2
2019-Aug-15 11:00 289 6 gusting 7 16.7
2019-Aug-15 10:54 297 6 gusting 9 16.7
2019-Aug-15 10:50 297 6 gusting 9 16.7
2019-Aug-15 10:44 290 6 gusting 12 16.7
2019-Aug-15 10:40 295 6 gusting 12 16.7
2019-Aug-15 10:34 296 6 gusting 13 16.7
2019-Aug-15 10:30 293 6 gusting 13 16.7